RH
68 86 98 92 95 98 98 98 100 78 92 94 89 97 86 86 86 83 74 77 72 82 77 72 70 75 88 97 84 64 72 52 60 77 79 92 78 82 75 70 57 62 45 46 44 53 47
52 83 99 93 97 100 98 99 95 83 94 89 94 93 89 74 70 76 72 71 78 76 67 67 69 77 88 93 73 66 73 81 88 86 88 78 58 68 63 59 59 47 48 47 44 41 36
36 50 78 73 77 100 100 98 97 82 88 83 80 83 82 69 81 75 71 71 50 67 65 71 65 79 91 69 71 86 80 96 87 75 81 81 52 66 52 55 49 48 54 54 50 42 40
30 37 70 64 70 93 98 100 98 85 87 88 81 56 76 59 83 72 67 53 50 63 61 70 72 84 80 50 67 70 86 97 89 88 75 64 55 60 53 48 47 51 55 70 47 43 38
29 37 62 68 71 76 97 98 100 96 95 90 87 63 85 80 58 45 44 60 54 50 50 70 61 78 79 69 55 66 68 83 97 84 74 66 70 65 54 66 69 60 79 66 50 40 43
29 33 37 41 68 68 67 89 88 96 98 93 95 56 84 67 55 65 64 52 62 72 74 74 87 84 70 75 65 57 62 82 93 86 94 70 68 80 78 80 84 76 71 58 54 44 43
30 30 30 34 40 28 28 42 72 89 98 96 76 58 63 73 52 55 69 77 70 76 82 74 70 71 67 67 64 52 72 82 99 98 84 74 88 88 79 66 56 54 57 51 47 39 46
30 29 30 38 39 22 16 18 13 67 92 89 63 73 43 66 67 52 71 78 92 91 85 64 65 63 69 69 84 58 81 99 96 95 78 86 88 69 64 55 56 50 56 52 39 41 45
29 29 31 39 41 43 35 18 9 11 27 62 64 59 59 55 66 67 62 61 70 89 90 74 89 90 79 78 88 80 99 90 83 90 78 77 68 56 62 59 60 56 49 48 49 45 43
28 29 32 38 40 36 34 33 32 13 7 35 51 55 66 52 64 70 75 52 62 72 96 94 83 86 80 87 90 99 96 89 91 82 69 63 60 64 62 68 56 62 38 39 55 60 66
27 29 32 39 40 39 34 30 26 31 13 13 47 50 57 69 60 91 78 53 67 82 93 93 90 78 89 95 86 88 88 86 85 76 74 85 77 75 75 66 52 56 47 56 58 64 64
25 28 32 40 42 40 36 33 29 26 33 8 45 53 62 77 78 83 58 60 96 89 97 98 86 85 98 94 88 92 89 82 84 82 83 90 79 87 83 81 67 51 60 63 68 75 90
25 27 32 37 43 46 38 32 35 31 29 13 44 56 65 73 83 95 95 84 94 93 88 89 91 83 82 85 87 78 86 90 93 98 99 90 94 84 83 86 74 63 66 95 95 97 89
25 29 32 38 40 45 38 35 39 37 33 15 42 55 68 81 81 80 91 93 89 87 87 76 77 78 83 78 85 90 92 95 88 88 93 98 97 95 87 88 94 80 61 86 87 98 84
28 32 35 40 40 41 35 40 41 40 37 17 48 63 67 82 75 91 96 93 85 95 68 71 70 72 80 73 80 94 96 88 82 80 88 99 100 90 84 86 91 93 96 52 72 55 85
36 30 43 37 39 37 38 43 47 41 38 14 59 73 81 71 81 95 96 90 90 78 56 52 71 59 85 73 77 86 95 71 84 75 73 86 97 95 88 84 81 89 72 83 94 97 69
38 35 44 34 39 40 43 52 55 42 37 14 71 79 84 68 91 97 94 98 79 54 53 56 61 56 57 64 68 60 63 55 52 64 59 70 77 99 96 99 97 92 92 69 71 86 90
28 52 39 40 43 45 50 58 48 25 32 16 84 93 82 69 97 91 94 83 58 53 50 49 49 51 52 52 46 50 64 56 43 44 58 55 79 98 89 78 73 82 82 69 90 79 74
32 47 44 46 46 51 58 57 40 15 20 39 77 76 87 76 94 83 65 65 61 56 46 45 50 48 46 50 57 52 64 52 47 53 54 56 83 95 87 71 73 93 92 80 77 74 83
44 48 50 47 52 53 56 61 48 14 40 77 88 94 88 90 67 69 65 65 70 54 55 43 45 44 48 49 43 56 65 54 50 50 45 46 70 77 83 70 75 81 76 85 95 91 73
49 56 48 51 53 52 58 59 56 18 36 78 83 89 86 95 72 68 58 55 56 68 57 45 47 49 52 52 49 56 62 64 53 49 49 60 82 72 61 66 72 72 70 76 97 74 79
56 53 52 58 59 59 59 65 66 36 33 36 87 93 88 93 75 63 66 62 59 59 57 56 53 49 42 50 48 54 60 61 62 57 54 64 91 83 81 61 60 72 69 70 72 66 66
59 52 60 63 66 68 66 63 72 62 24 39 66 86 93 83 82 68 71 68 67 58 57 53 56 53 46 63 53 49 42 42 47 62 64 69 86 93 88 70 71 81 74 68 64 63 60
56 59 69 69 66 74 69 67 78 78 67 43 63 93 91 91 67 62 72 68 76 73 74 55 61 57 53 49 46 43 42 43 44 52 50 79 76 90 94 84 95 54 52 57 58 51 60
53 62 76 73 72 76 74 73 74 76 80 70 60 61 90 92 65 54 62 74 70 67 68 65 70 63 60 56 60 63 64 58 52 49 50 53 62 79 83 86 65 50 59 59 66 64 51
54 75 92 79 76 69 75 85 86 82 85 79 86 74 79 87 69 59 60 64 89 90 77 73 72 62 65 79 68 73 81 55 67 60 55 58 55 74 79 70 86 60 50 46 52 81 55
58 89 84 84 69 68 74 73 83 84 81 82 88 88 79 86 65 71 63 76 68 80 93 78 82 75 75 85 81 76 70 51 75 73 76 76 74 86 83 90 70 47 50 50 82 70 60
82 84 84 79 72 71 72 76 83 86 89 84 88 95 93 90 83 71 68 61 56 62 88 87 78 81 88 88 86 81 68 63 62 58 77 83 78 80 78 86 90 54 62 74 67 64 61
80 82 79 80 80 73 76 81 85 80 78 84 95 97 95 93 82 75 78 71 66 58 57 76 87 86 96 97 89 85 73 69 69 77 58 74 67 73 70 73 48 56 56 56 60 64 61
Wind_Speed
23 24 22 23 22 21 22 23 23 22 25 30 31 32 29 25 15 7 7 5 5 5 6 6 4 3 6 4 17 6 2 28 30 30 30 23 29 17 7 7 14 7 8 18 17 16 13
24 23 21 24 24 22 21 21 21 22 27 29 32 31 26 20 10 4 3 2 4 4 3 5 4 3 7 6 4 10 6 23 32 33 32 28 22 23 15 15 7 13 16 8 2 16 14
25 25 24 24 24 23 22 22 21 21 26 27 32 29 25 18 7 3 1 4 3 3 5 5 4 1 6 17 6 2 2 19 27 33 33 27 22 24 12 5 16 10 7 4 10 13 5
24 26 24 25 25 23 23 22 22 21 24 25 30 28 22 16 10 5 3 6 1 5 7 7 4 2 8 4 11 6 2 13 26 30 29 29 23 18 1 5 10 5 6 7 9 9 4
22 25 25 25 25 25 24 23 21 21 23 24 27 28 19 15 11 7 5 4 5 7 6 2 2 2 8 8 10 8 5 8 8 32 26 24 14 5 10 6 5 5 5 8 10 15 6
21 24 26 26 24 26 25 23 23 21 22 22 22 25 15 13 10 9 8 6 7 7 9 6 3 3 4 5 5 8 8 8 4 30 23 20 8 3 5 6 13 16 10 7 9 9 6
20 23 26 27 25 27 27 26 23 23 21 20 19 20 17 10 8 7 8 5 3 4 1 1 4 7 8 11 5 10 12 7 5 21 10 19 6 13 12 3 5 7 8 3 7 6 8
19 22 25 25 26 27 28 28 27 23 22 18 15 16 14 9 5 3 4 4 5 2 5 2 5 6 6 1 2 10 11 7 4 8 11 6 5 5 8 6 6 4 7 11 1 5 12
18 20 22 24 25 26 27 29 28 27 23 20 15 9 11 7 5 3 4 2 3 4 3 4 6 3 2 5 7 9 6 3 10 8 11 8 7 7 8 5 8 6 6 5 6 3 4
16 19 21 22 23 26 28 29 30 30 28 22 16 9 7 5 2 4 4 1 3 7 2 11 8 7 3 2 3 3 9 5 2 7 9 2 5 7 7 8 5 4 5 4 12 6 4
15 18 20 21 22 24 27 30 30 30 29 27 18 8 2 8 4 4 6 3 4 2 5 8 6 3 4 3 9 9 12 2 6 10 1 2 3 4 3 2 4 5 5 7 4 4 4
14 16 19 21 22 24 26 29 30 30 29 29 16 7 1 3 4 5 5 5 6 4 4 1 4 3 7 8 4 6 5 3 6 6 8 4 4 4 3 3 3 2 8 8 5 3 1
13 15 17 21 23 23 24 27 30 30 29 27 15 4 3 1 2 5 5 2 4 5 4 2 3 0 2 4 4 3 3 5 3 4 2 2 3 2 3 4 5 3 7 2 2 1 5
12 14 17 20 24 26 26 28 31 32 27 24 13 0 5 1 2 1 6 1 8 3 3 2 2 4 3 1 3 4 4 3 3 4 4 4 4 2 1 4 3 7 5 5 6 4 4
11 14 17 20 24 27 29 31 30 31 25 21 9 1 4 5 4 8 4 5 4 3 3 2 1 2 2 3 5 6 1 4 3 3 5 4 2 2 0 2 3 3 3 2 2 2 3
11 14 18 20 24 28 30 33 32 29 22 18 4 1 2 5 3 6 3 4 3 4 3 2 3 0 1 3 2 7 7 4 5 5 3 5 5 1 2 1 2 2 2 2 2 2 4
10 14 17 20 25 28 30 30 31 29 22 14 3 0 2 2 5 2 3 4 4 5 1 0 4 1 3 3 4 3 3 4 6 9 8 7 3 3 5 5 5 4 2 3 2 4 3
10 15 17 20 24 28 26 28 29 27 22 12 2 2 1 1 2 3 2 4 2 1 3 3 1 2 1 1 2 1 4 1 3 7 6 5 4 3 4 4 8 2 4 4 4 4 2
10 14 17 20 24 24 24 26 27 25 21 16 5 2 1 2 1 1 3 2 1 1 0 2 1 1 1 2 2 3 4 2 4 2 5 4 2 3 3 1 6 4 5 4 2 1 4
10 14 17 20 21 22 23 25 25 23 16 10 3 3 1 5 3 2 4 5 4 3 2 2 1 2 1 1 1 3 2 1 2 2 2 2 3 5 7 4 5 5 11 11 6 2 3
8 11 14 17 19 21 23 25 26 24 14 4 5 3 3 2 3 3 1 1 3 4 2 3 2 4 4 3 4 4 3 2 2 2 1 3 3 2 2 3 3 3 5 13 10 8 5
6 9 12 15 18 20 22 24 26 25 14 8 5 5 7 6 11 3 1 3 2 2 4 4 3 6 4 2 2 4 6 4 4 2 3 2 2 2 3 4 2 4 7 7 8 10 7
4 6 9 14 17 18 21 22 23 23 22 9 7 2 2 6 5 1 2 3 4 3 1 3 2 2 2 2 2 5 4 3 7 7 5 4 4 2 2 2 3 7 13 15 7 6 13
2 3 8 14 17 15 19 18 17 21 21 17 14 5 4 3 3 4 6 5 7 5 0 3 5 1 1 1 3 3 6 7 6 4 6 5 6 3 3 2 1 6 3 8 16 9 9
1 2 7 13 17 15 16 18 13 15 18 15 18 10 6 3 8 6 12 4 8 8 3 1 2 2 2 1 2 2 1 1 3 1 1 2 4 2 2 3 7 3 3 5 6 7 13
1 2 7 14 14 12 13 15 18 17 12 17 13 14 4 3 3 6 4 6 2 4 4 3 2 3 1 2 2 3 3 4 3 3 1 2 3 4 1 3 4 3 1 3 3 5 2
3 1 6 10 10 10 11 12 12 15 13 13 12 13 7 5 3 11 3 4 6 4 3 3 3 1 1 1 0 2 3 2 3 5 4 2 1 5 4 3 6 6 4 3 3 4 4
4 2 5 6 8 10 9 10 11 14 14 15 11 10 11 6 18 4 5 4 6 3 2 6 2 2 1 2 3 3 3 4 2 4 6 6 5 3 4 3 7 4 4 3 3 2 9
3 3 6 6 7 10 7 8 10 13 15 13 9 11 11 10 13 24 19 17 19 11 7 3 3 3 4 2 1 2 2 1 5 3 1 3 6 4 7 5 6 12 1 6 9 9 7
Wind_Direction
360 359 358 356 355 356 357 351 347 354 354 346 344 343 339 335 333 313 288 277 300 314 311 316 313 233 211 184 239 356 119 192 192 194 185 184 181 184 168 177 178 222 174 220 224 168 227
360 360 357 354 355 354 353 350 351 1 353 351 349 347 349 346 343 319 321 294 302 291 331 348 319 214 194 236 283 282 149 189 184 186 183 178 186 184 186 174 188 198 232 316 356 181 202
358 2 359 358 359 353 358 354 357 2 354 356 352 357 360 5 26 33 335 330 316 310 337 3 324 207 240 235 191 76 167 187 187 182 179 180 177 190 180 144 206 247 161 272 303 163 176
357 0 360 359 359 356 358 354 358 2 356 357 359 1 12 23 28 35 0 342 324 309 306 300 308 155 258 312 232 259 279 202 189 188 182 172 171 202 188 155 164 167 104 166 225 157 188
356 357 359 359 357 1 356 356 359 355 356 357 4 8 17 22 19 21 42 42 7 348 307 291 123 202 276 334 231 205 249 220 193 169 175 185 181 172 180 126 87 137 168 188 181 194 147
355 356 1 2 358 359 1 357 356 354 354 360 6 9 18 28 40 55 41 45 40 51 66 55 1 281 295 324 294 212 248 190 80 170 186 176 163 120 144 158 182 183 185 184 188 193 171
353 355 0 2 1 0 4 1 356 356 356 352 2 11 13 35 36 47 35 34 24 67 308 232 273 255 287 331 180 199 199 203 227 207 163 173 148 186 178 104 117 127 146 183 210 213 179
351 353 1 1 3 3 4 6 4 359 353 350 349 0 5 23 56 57 44 57 78 29 322 290 288 293 317 62 104 172 196 210 161 144 139 136 171 156 145 175 220 192 173 216 278 202 189
347 352 360 1 5 2 5 8 7 4 359 350 344 350 355 354 53 79 50 96 89 81 243 341 15 356 75 114 86 211 212 75 138 143 145 134 149 155 162 189 210 241 175 200 159 85 17
344 349 357 3 3 4 5 7 7 3 1 357 345 337 337 332 16 6 347 331 86 356 66 355 1 25 49 95 102 34 83 69 119 119 122 79 108 162 182 211 171 243 214 160 138 121 197
343 348 353 357 356 359 360 360 2 1 358 355 348 342 8 322 301 307 315 293 331 294 62 344 334 335 337 49 141 19 72 27 58 110 132 137 103 133 152 186 149 238 126 120 118 106 89
342 346 347 350 353 350 353 354 353 358 355 353 351 350 24 360 299 300 300 305 342 44 64 89 300 222 183 186 93 114 87 91 56 71 53 38 26 45 46 27 45 175 83 52 51 85 16
341 343 345 345 346 348 351 347 348 352 353 352 344 2 3 335 292 273 270 323 30 68 347 280 244 85 26 101 80 65 71 114 122 109 97 79 17 8 49 68 355 277 93 71 10 357 220
340 340 341 341 343 344 347 348 345 345 351 351 345 41 32 41 322 110 136 59 60 329 198 263 227 174 48 88 84 76 100 135 229 96 120 156 165 125 31 139 201 216 135 166 185 201 228
335 336 340 340 340 341 345 346 347 340 349 349 355 100 49 26 40 123 115 49 169 180 308 211 321 265 67 131 122 87 243 155 175 191 138 139 106 143 61 94 210 187 244 199 106 177 76
329 338 340 339 338 340 345 346 348 341 348 346 26 115 272 1 137 125 86 148 187 225 327 257 264 120 117 130 138 180 190 188 143 203 189 150 110 127 158 172 184 193 323 88 14 203 235
334 338 341 339 339 341 346 350 352 348 348 353 86 48 184 314 174 105 120 202 206 212 243 71 338 250 143 157 189 201 88 156 166 192 190 160 116 136 143 205 176 181 193 234 150 160 205
335 341 343 340 342 346 352 357 356 354 351 8 63 64 281 239 215 196 128 186 339 163 231 254 271 7 38 207 132 53 130 104 116 164 164 184 114 141 208 185 213 196 168 210 146 236 218
330 338 344 345 349 351 358 1 2 358 353 358 12 337 247 258 3 64 172 159 275 310 318 327 175 349 357 52 104 100 79 316 40 81 160 174 129 110 119 144 188 196 202 233 39 3 215
325 341 344 348 354 353 356 3 5 1 352 0 45 14 213 227 263 226 181 182 182 211 271 302 122 330 8 39 37 136 115 107 14 116 125 102 146 161 189 204 143 194 182 197 162 205 202
331 339 346 354 360 357 359 2 4 5 2 4 26 42 11 308 339 349 297 104 173 177 239 217 264 227 226 179 173 166 125 119 265 198 31 98 149 114 277 135 123 187 182 183 189 214 164
332 347 353 2 1 3 3 4 6 7 9 41 46 5 348 288 301 294 332 210 91 106 160 227 205 269 239 60 178 171 139 163 192 207 164 51 174 98 305 230 183 248 242 223 215 218 244
346 356 7 5 0 1 5 6 12 16 20 34 36 57 311 289 311 30 12 7 46 71 273 228 284 346 109 158 80 82 135 166 187 154 183 136 129 87 260 23 340 297 228 213 216 203 211
348 348 359 357 357 2 7 12 18 19 25 27 16 6 350 287 25 4 4 7 13 340 77 320 23 31 22 134 110 75 69 64 117 123 157 145 144 111 203 44 261 246 169 197 214 225 207
286 350 345 0 6 6 13 15 16 17 22 23 23 10 11 319 334 357 356 350 332 315 245 76 46 84 348 202 97 109 15 11 194 151 275 169 146 182 145 209 279 269 198 188 173 263 217
278 298 350 360 358 12 26 26 22 12 7 11 16 12 360 332 315 326 312 312 327 334 322 141 162 206 256 58 245 194 193 206 183 183 131 9 141 133 182 256 253 288 219 228 109 278 331
191 310 338 350 7 21 21 14 9 2 10 8 11 0 360 312 278 346 340 314 336 358 302 330 6 113 210 93 285 202 239 214 182 190 171 156 177 194 223 253 282 251 193 129 118 260 328
189 274 329 351 2 6 4 6 359 357 354 346 348 351 3 317 299 305 302 304 312 328 304 342 335 335 87 152 164 247 169 239 213 182 169 166 178 183 195 217 265 184 110 187 200 116 108
204 254 326 331 350 359 0 358 345 343 346 344 360 346 336 313 281 305 293 273 249 259 280 294 305 326 355 249 38 307 269 191 182 237 84 185 183 189 178 210 242 192 290 201 174 163 152